Retour au catalogue

THORAD AGENA D DEB

ActifPO
NORAD 4767·DEBRIS·🇺🇸 United States

Lancé Apr 8, 1970 depuis Vandenberg Space Force Base

Loading…

Prochains Passages

TLE

Source: Space-Track
1  4767U 70025DM  26225.20262507  .00000072  00000-0  12772-3 0  9990
2  4767  99.9261 330.1412 0053221  92.7000 330.3812 13.73431891810006

Suivez THORAD AGENA D DEB en temps réel avec AllMySat

Download on the App Store